Stations météo

Publicité
Pertusato, France (7770): Température de l'air & dewpoint: 20.04.2018 16:00:00 - 26.04.2018 16:00:00 (CEST)Pertusato, France (7770): Vitesse du vent & gusts: 20.04.2018 16:00:00 - 26.04.2018 16:00:00 (CEST)Pertusato, France (7770): Direction du vent: 20.04.2018 16:00:00 - 26.04.2018 16:00:00 (CEST)Pertusato, France (7770): reduced air pressure: 20.04.2018 16:00:00 - 26.04.2018 16:00:00 (CEST)Pertusato, France (7770): visibility: 20.04.2018 16:00:00 - 26.04.2018 16:00:00 (CEST)Pertusato, France (7770): Quantités de précipitations: 20.04.2018 16:00:00 - 26.04.2018 16:00:00 (CEST)
Date & Time tt [°C] td [°C] ff [km/h] ff [knt] fx [km/h] fx [knt] dd ppp [hPa] vv [km] rr [mm]
26.04.2018 16:00:00 19,2 15,5 9 5 18 10 WSW 1011,9 - 0,0
26.04.2018 15:00:00 20,4 15,8 6 3 18 10 W 1012,4 - 0,0
26.04.2018 14:00:00 19,5 16,2 12 7 29 16 W 1012,6 - 0,0
26.04.2018 13:00:00 18,4 15,6 14 8 29 16 W 1012,9 - 0,0
26.04.2018 12:00:00 18,6 15,5 12 6 23 13 W 1013,5 - 0,2
26.04.2018 11:00:00 18,4 14,9 7 4 13 7 WSW 1013,9 - 0,2
26.04.2018 10:00:00 17,8 -10,1 5 3 9 5 SW 1014,4 - 0,0
26.04.2018 09:00:00 17,3 16,7 2 1 12 6 S 1014,2 - 0,0
26.04.2018 08:00:00 15,6 15,1 10 5 16 9 NE 1014,2 - 0,0
26.04.2018 07:00:00 15,0 14,7 0 0 9 5 N 1014,3 - 0,0
26.04.2018 06:00:00 13,9 13,4 6 3 14 8 E 1014,2 - 0,0
26.04.2018 05:00:00 14,2 13,6 7 4 9 5 ENE 1014,3 15 0,0
26.04.2018 04:00:00 15,3 14,7 6 3 15 8 SW 1014,9 - 0,0
26.04.2018 03:00:00 16,5 16,0 9 5 16 9 W 1015,1 - 0,0
26.04.2018 02:00:00 16,7 16,2 10 6 24 13 W 1015,5 - 0,0
26.04.2018 01:00:00 16,8 16,3 17 9 24 13 WSW 1016,0 - 0,2
26.04.2018 00:00:00 16,7 16,1 17 9 22 12 WSW 1016,0 - 0,0
25.04.2018 23:00:00 16,6 15,1 12 6 18 10 WSW 1016,1 - 0,0
25.04.2018 22:00:00 15,8 14,0 9 5 16 9 NW 1016,3 - 0,0
25.04.2018 21:00:00 16,0 14,2 6 3 18 10 NE 1016,2 - 0,0
25.04.2018 20:00:00 16,9 14,7 8 4 21 12 NNE 1015,7 12 0,0
25.04.2018 19:00:00 18,5 14,8 17 9 29 16 ENE 1015,5 - 0,0
25.04.2018 18:00:00 19,8 14,2 22 12 32 18 E 1015,7 - 0,0
25.04.2018 17:00:00 22,4 13,2 22 12 29 16 ENE 1015,4 - 0,0
25.04.2018 16:00:00 22,8 14,4 21 11 29 16 ENE 1016,3 - 0,0
25.04.2018 15:00:00 23,3 14,3 19 10 29 16 ENE 1016,8 - 0,0
25.04.2018 14:00:00 24,0 14,7 16 9 28 15 E 1017,2 - 0,0
25.04.2018 13:00:00 23,4 14,1 10 5 23 13 E 1017,6 - 0,0
25.04.2018 12:00:00 21,7 14,6 16 9 26 14 E 1017,6 - 0,0
25.04.2018 11:00:00 21,2 15,3 13 7 20 11 E 1017,8 - 0,0
25.04.2018 10:00:00 20,8 15,3 8 4 14 8 E 1017,7 - 0,0
25.04.2018 09:00:00 19,2 15,3 7 4 13 7 E 1017,9 - 0,0
25.04.2018 08:00:00 17,3 14,8 5 3 13 7 E 1017,9 - 0,0
25.04.2018 07:00:00 14,4 13,4 12 6 14 7 ENE 1017,5 - 0,0
25.04.2018 06:00:00 14,0 13,0 12 7 14 8 ENE 1017,3 - 0,0
25.04.2018 05:00:00 14,1 13,0 12 7 14 7 NE 1016,9 15 0,0
25.04.2018 04:00:00 14,0 12,0 12 6 13 7 E 1017,0 - 0,0
25.04.2018 03:00:00 14,1 12,0 10 5 11 6 ENE 1017,3 - 0,0
25.04.2018 02:00:00 14,7 11,5 4 2 5 3 E 1018,0 - 0,0
25.04.2018 01:00:00 15,3 12,2 3 2 4 2 NW 1018,3 - 0,0
25.04.2018 00:00:00 15,9 12,3 2 1 5 3 SW 1018,3 - 0,0
24.04.2018 23:00:00 15,5 13,2 2 1 8 4 WSW 1018,6 - 0,0
24.04.2018 22:00:00 16,3 14,0 3 2 6 3 SW 1018,6 - 0,0
24.04.2018 21:00:00 15,9 13,2 2 1 8 4 S 1018,3 - 0,0
24.04.2018 20:00:00 17,0 13,9 6 3 8 4 SSE 1017,8 15 0,0
24.04.2018 19:00:00 18,5 13,1 6 3 18 10 W 1017,9 - 0,0
24.04.2018 18:00:00 19,0 14,0 14 7 25 14 W 1018,1 - 0,0
24.04.2018 17:00:00 19,4 14,9 22 12 32 17 W 1017,9 10 0,0
24.04.2018 16:00:00 19,6 15,0 23 12 30 16 W 1018,1 - 0,0
24.04.2018 15:00:00 19,3 15,8 22 12 31 17 W 1018,8 - 0,0
24.04.2018 14:00:00 19,3 16,1 24 13 32 17 W 1019,0 15 0,0
24.04.2018 13:00:00 18,2 16,0 20 11 30 16 W 1019,3 - 0,2
24.04.2018 12:00:00 18,3 16,1 19 10 25 13 W 1019,7 - 0,0
24.04.2018 11:00:00 17,9 15,2 16 9 21 11 W 1019,8 12 0,0
24.04.2018 10:00:00 18,3 15,9 13 7 16 8 W 1019,4 - 0,0
24.04.2018 09:00:00 16,7 15,1 8 4 14 7 W 1019,1 - 0,0
24.04.2018 08:00:00 14,8 14,2 10 5 21 12 W 1018,9 - 0,0
24.04.2018 07:00:00 15,1 14,6 14 8 20 11 W 1018,3 - 0,0
24.04.2018 06:00:00 15,4 14,9 13 7 24 13 W 1018,1 - 0,0
24.04.2018 05:00:00 15,3 14,7 17 9 20 11 W 1017,8 - 0,0
24.04.2018 04:00:00 15,1 14,3 17 9 27 14 W 1018,3 - 0,0
24.04.2018 03:00:00 15,5 14,4 10 5 24 13 WSW 1018,1 - 0,0
24.04.2018 02:00:00 16,0 14,9 19 10 34 19 WSW 1018,4 - 0,0
24.04.2018 01:00:00 16,0 14,2 11 6 30 16 W 1018,9 - 0,0
24.04.2018 00:00:00 16,0 14,5 11 6 34 18 WSW 1019,1 - 0,0
23.04.2018 23:00:00 16,3 13,8 16 9 29 16 WSW 1018,8 - 0,0
23.04.2018 22:00:00 16,0 14,4 14 7 21 11 WSW 1019,0 - 0,0
23.04.2018 21:00:00 16,2 14,4 10 6 22 12 WSW 1018,5 - 0,0
23.04.2018 20:00:00 16,5 12,1 16 9 29 16 W 1018,0 - 0,0
23.04.2018 19:00:00 17,8 13,7 19 10 33 18 WNW 1018,0 - 0,0
23.04.2018 18:00:00 18,6 14,1 21 12 37 20 W 1018,0 - 0,0
23.04.2018 17:00:00 18,9 14,0 22 12 29 16 W 1018,2 - 0,0
23.04.2018 16:00:00 19,5 14,1 14 8 20 11 W 1018,7 - 0,0
23.04.2018 15:00:00 19,8 15,4 9 5 19 10 W 1019,1 - 0,0
23.04.2018 14:00:00 19,1 15,4 8 4 21 11 W 1019,4 15 0,0
23.04.2018 13:00:00 19,9 16,1 6 3 16 9 WSW 1019,9 - 0,0
23.04.2018 12:00:00 18,7 15,8 8 5 16 9 WSW 1020,3 - 0,0
23.04.2018 11:00:00 18,0 15,4 10 5 14 7 WSW 1020,5 - 0,0
23.04.2018 10:00:00 18,1 15,2 6 4 13 7 W 1020,3 - 0,0
23.04.2018 09:00:00 17,2 14,5 10 5 15 8 W 1020,1 - 0,0
23.04.2018 08:00:00 16,3 14,7 9 5 14 7 W 1019,6 14 0,0
23.04.2018 07:00:00 14,4 12,6 12 7 18 10 W 1019,1 - 0,0
23.04.2018 06:00:00 14,6 13,6 16 8 32 17 W 1018,6 - 0,0
23.04.2018 05:00:00 15,4 14,4 13 7 29 16 W 1018,4 - 0,0
23.04.2018 04:00:00 15,2 14,1 13 7 24 13 WSW 1018,6 - 0,0
23.04.2018 03:00:00 15,3 14,7 10 6 28 15 WSW 1018,7 - 0,0
23.04.2018 02:00:00 15,8 15,2 17 9 26 14 WSW 1019,2 - 0,0
23.04.2018 01:00:00 15,8 15,2 14 8 25 14 W 1019,5 - 0,0
23.04.2018 00:00:00 16,2 15,2 18 10 29 15 WSW 1019,2 - 0,0
22.04.2018 23:00:00 16,2 15,1 18 10 27 15 WSW 1019,1 - 0,0
22.04.2018 22:00:00 16,3 15,0 18 10 26 14 WSW 1018,9 - 0,0
22.04.2018 21:00:00 16,4 14,9 15 8 19 10 SW 1018,4 - 0,0
22.04.2018 20:00:00 16,7 14,5 15 8 22 12 WSW 1017,8 - 0,0
22.04.2018 19:00:00 17,8 14,7 14 8 22 12 WSW 1017,7 - 0,0
22.04.2018 18:00:00 18,2 15,4 16 8 26 14 W 1017,7 - 0,0
22.04.2018 17:00:00 18,6 15,3 21 11 26 14 W 1017,7 - 0,0
22.04.2018 16:00:00 19,4 15,9 16 8 24 13 W 1017,9 - 0,0
22.04.2018 15:00:00 19,5 15,4 17 9 21 12 W 1018,5 - 0,0
22.04.2018 14:00:00 18,5 15,4 12 7 21 12 W 1018,7 - 0,0
22.04.2018 13:00:00 17,8 14,5 15 8 28 15 W 1019,0 - 0,0
22.04.2018 12:00:00 16,3 15,0 12 6 24 13 W 1019,4 - 0,0
22.04.2018 11:00:00 16,1 15,5 15 8 22 12 W 1019,5 - 0,0
22.04.2018 10:00:00 15,0 14,5 15 8 20 11 W 1019,4 - 0,0
22.04.2018 09:00:00 14,5 14,0 11 6 18 10 W 1018,8 - 0,0
22.04.2018 08:00:00 14,7 14,2 11 6 14 8 W 1018,3 - 0,0
22.04.2018 07:00:00 14,2 13,7 11 6 16 8 W 1018,0 - 0,0
22.04.2018 06:00:00 14,4 13,9 11 6 17 9 W 1018,1 - 0,0
22.04.2018 05:00:00 14,5 13,9 13 7 18 10 W 1018,2 - 0,0
22.04.2018 04:00:00 14,9 14,3 16 9 20 11 WNW 1018,5 - 0,0
22.04.2018 03:00:00 14,8 14,2 16 9 21 11 W 1018,6 - 0,0
22.04.2018 02:00:00 15,0 14,4 15 8 20 11 W 1018,8 - 0,0
22.04.2018 01:00:00 15,3 14,3 16 9 27 14 W 1019,1 - 0,2
22.04.2018 00:00:00 15,5 14,2 21 12 28 15 WNW 1019,0 - 0,0
21.04.2018 23:00:00 15,9 13,6 21 11 29 16 W 1019,0 - 0,0
21.04.2018 22:00:00 15,7 14,2 16 9 24 13 W 1019,1 - 0,0
21.04.2018 21:00:00 15,7 14,2 15 8 23 12 WSW 1018,6 - 0,0
21.04.2018 20:00:00 16,1 14,3 18 10 24 13 SW 1018,2 - 0,0
21.04.2018 19:00:00 17,3 14,8 12 6 21 12 WSW 1018,1 - 0,0
21.04.2018 18:00:00 18,3 15,4 13 7 24 13 W 1018,3 - 0,0
21.04.2018 17:00:00 18,7 15,6 16 9 22 12 W 1018,6 12 0,0
21.04.2018 16:00:00 19,9 14,5 16 9 23 12 W 1018,8 - 0,0
21.04.2018 15:00:00 20,5 14,2 7 4 18 10 WNW 1019,3 - 0,0
21.04.2018 14:00:00 19,9 15,1 11 6 19 10 W 1019,5 - 0,0
21.04.2018 13:00:00 19,2 14,9 12 6 17 9 W 1019,6 - 0,0
21.04.2018 12:00:00 19,9 13,8 9 5 14 7 W 1020,1 - 0,0
21.04.2018 11:00:00 17,7 14,4 10 5 15 8 W 1020,4 10 0,0
21.04.2018 10:00:00 17,3 14,4 12 7 21 11 WNW 1020,1 - 0,0
21.04.2018 09:00:00 15,7 14,4 18 10 24 13 W 1019,9 - 0,0
21.04.2018 08:00:00 15,3 14,5 11 6 28 15 W 1019,7 5 0,0
21.04.2018 07:00:00 15,1 14,5 16 8 31 17 W 1019,4 - 0,0
21.04.2018 06:00:00 14,9 14,3 22 12 34 19 W 1019,2 - 0,0
21.04.2018 05:00:00 14,9 14,4 23 12 34 18 W 1019,3 15 0,0
21.04.2018 04:00:00 15,1 14,6 22 12 30 16 W 1019,7 - 0,0
21.04.2018 03:00:00 15,2 14,7 13 7 27 14 WSW 1019,7 - 0,0
21.04.2018 02:00:00 15,4 14,9 14 8 23 12 W 1020,0 - 0,0
21.04.2018 01:00:00 15,5 14,7 15 8 27 14 W 1020,5 - 0,0
21.04.2018 00:00:00 15,4 13,9 23 12 27 15 W 1020,6 - 0,0
20.04.2018 23:00:00 15,4 14,4 19 11 25 14 W 1020,8 - 0,0
20.04.2018 22:00:00 15,7 14,7 19 10 27 15 W 1021,0 - 0,0
20.04.2018 21:00:00 16,0 14,2 17 9 22 12 W 1020,8 - 0,0
20.04.2018 20:00:00 17,7 10,8 6 4 11 6 WSW 1020,2 18 0,0
20.04.2018 19:00:00 20,7 9,6 7 4 10 6 WNW 1020,0 - 0,0
20.04.2018 18:00:00 22,2 9,4 4 2 10 5 W 1020,3 - 0,0
20.04.2018 17:00:00 21,5 11,5 5 3 10 6 WSW 1020,4 18 0,0
20.04.2018 16:00:00 21,9 10,4 9 5 14 7 W 1021,0 - 0,0

tt = Température de l'air
td = dewpoint
ff = Vitesse du vent
fx = gusts
dd = Direction du vent
ppp = reduced air pressure
vv = visibility
rr = Quantités de précipitations

stations d'obs. à proximité